Theta_e
289 290 290 289 289 288 288 288 287 287 286 285 285 284 284 284 283 283 281 281 281 281 280 280 280 279 279 278 278 277 277 276 276 276 276 275 275 275 274 274 274 274 274 273 273 273 273 273 273 273 274 273 273 273 273 273 273 273 273 273 273 273 272 271 269 269 272 274 273 273 274 274 274 274 274 274 275 275 278 276 276 276 276 276 276
289 289 289 289 288 288 288 287 287 286 285 285 284 284 283 283 283 281 281 281 281 280 280 280 279 279 278 278 277 277 277 276 276 276 275 275 274 274 274 274 273 273 273 272 272 273 273 272 273 273 274 273 273 273 273 273 273 272 272 272 271 272 273 271 270 269 268 272 272 273 273 274 273 274 273 274 274 275 275 275 276 276 275 275 275
289 289 289 288 288 288 288 286 286 285 285 284 284 284 283 283 282 281 281 280 280 280 280 279 279 278 278 277 277 276 276 276 276 275 275 275 274 273 273 273 273 272 272 272 272 273 272 273 273 273 273 272 273 273 273 273 273 272 271 272 271 271 271 272 270 268 269 269 272 272 272 273 273 274 274 275 275 275 275 275 275 276 276 276 276
289 288 288 288 288 287 287 286 285 285 284 284 284 284 283 282 282 281 281 280 279 279 279 279 278 278 277 277 276 276 276 275 275 275 275 274 274 273 273 273 273 273 272 272 272 272 272 272 272 272 272 272 272 272 273 273 272 272 271 271 271 271 271 271 271 270 270 269 270 271 273 273 274 275 275 275 275 275 275 275 276 275 275 276 276
289 288 288 287 287 287 286 285 284 284 284 284 284 283 282 282 281 280 280 279 279 278 278 278 277 277 277 276 276 275 275 275 274 274 274 274 273 273 273 272 272 272 272 273 273 272 272 272 272 272 272 271 272 272 272 272 272 271 271 271 271 271 271 272 271 271 270 270 271 273 274 274 274 274 275 274 275 275 275 275 275 276 276 276 276
289 288 288 287 286 286 285 285 285 284 284 284 284 283 282 281 280 280 279 279 278 278 278 277 277 277 276 276 275 275 275 274 274 274 273 273 273 272 272 272 272 272 272 273 273 273 272 272 272 272 272 271 271 271 272 271 271 271 271 271 271 272 272 272 272 272 272 271 272 272 273 273 273 274 275 275 275 274 275 276 276 276 275 275 276
288 288 287 286 286 286 285 285 285 285 285 284 284 282 281 280 280 279 279 278 278 277 277 276 276 276 276 275 275 274 274 274 273 273 272 272 272 272 272 272 271 272 272 272 272 272 272 272 272 272 271 272 271 271 271 271 271 271 271 272 272 272 272 272 273 273 272 272 272 273 273 274 274 273 275 276 276 275 274 274 274 276 276 275 275
287 287 287 286 286 286 286 286 285 285 284 284 283 282 281 279 279 279 278 278 277 277 276 276 276 275 275 274 274 274 273 273 272 272 272 271 271 272 271 271 271 271 271 272 272 272 272 272 272 272 272 272 272 271 271 271 272 272 273 273 274 273 273 273 273 273 272 272 272 272 273 273 274 275 276 275 274 275 276 275 273 274 275 276 276
287 287 286 286 286 286 286 285 285 284 283 282 281 280 280 279 279 278 277 277 277 277 276 276 275 274 273 273 273 273 273 272 272 272 271 271 271 271 271 271 271 271 271 272 272 272 272 272 272 272 273 274 275 275 275 275 273 273 274 274 274 274 273 273 273 273 273 273 272 273 273 273 273 274 274 274 274 273 275 276 274 275 275 275 276
286 286 286 286 286 286 285 284 284 283 282 281 280 280 279 278 278 277 277 277 276 276 275 275 274 274 273 272 272 272 272 272 274 277 275 272 271 271 271 271 271 271 271 271 271 272 272 272 273 275 275 276 276 278 278 279 280 278 277 277 276 275 275 274 274 274 274 273 273 273 273 273 274 274 274 275 276 276 275 275 274 274 275 274 275
286 286 286 286 286 285 284 283 282 281 281 281 279 278 278 277 277 276 276 275 275 274 274 274 273 273 273 272 272 272 272 272 277 279 279 277 272 271 271 272 272 272 272 271 271 272 273 274 274 275 276 277 277 278 279 279 279 279 279 279 279 277 275 274 274 274 273 273 273 273 273 273 274 275 274 275 275 275 274 275 274 274 273 272 270
286 286 286 286 285 284 283 282 281 281 280 279 278 278 277 276 275 275 275 274 274 273 273 273 273 273 273 272 272 272 272 276 279 280 280 279 276 272 272 272 272 272 272 272 273 273 274 274 275 275 275 275 274 274 275 277 278 278 278 279 279 279 280 277 275 274 274 273 273 273 273 273 274 275 274 274 274 274 275 274 274 273 272 272 272
286 285 285 284 284 283 282 281 280 280 279 279 277 276 276 275 275 274 274 274 273 273 273 273 272 273 272 272 271 272 272 277 280 281 281 280 278 275 272 272 272 273 273 274 274 274 274 275 275 274 273 276 275 274 273 273 276 277 277 278 278 279 279 280 280 277 276 275 274 274 274 274 273 274 275 275 276 274 274 274 274 274 274 273 273
285 285 284 283 283 282 281 280 280 279 278 277 276 276 275 275 275 275 274 273 273 273 273 272 272 272 272 272 271 271 271 276 280 281 281 281 280 276 272 273 274 275 274 274 275 275 275 274 273 272 272 273 273 273 272 273 273 273 274 274 275 276 278 279 279 279 278 276 274 273 275 275 274 275 276 277 275 274 274 274 274 274 274 274 275
284 284 283 283 282 281 281 280 279 278 277 277 276 275 275 275 275 274 274 273 273 273 272 272 272 272 271 271 271 271 270 277 281 282 282 282 282 279 274 275 275 275 275 275 275 275 275 273 272 272 272 272 272 273 273 273 273 274 274 275 275 275 276 276 276 276 276 276 276 275 276 276 276 276 277 277 276 276 276 276 276 275 275 276 276
284 283 282 282 281 281 280 279 279 278 277 276 275 275 275 275 275 274 274 273 273 273 272 272 271 271 271 270 270 269 270 278 281 282 282 282 282 277 275 275 275 275 275 275 275 275 274 273 272 272 272 272 274 277 276 276 275 274 274 274 275 275 275 277 279 280 278 277 277 276 276 276 279 277 278 278 278 278 277 276 274 273 272 271 270
283 283 283 282 282 281 280 279 278 277 276 276 275 275 275 275 275 274 273 273 273 272 272 271 271 270 270 270 270 270 270 277 281 282 282 282 281 276 276 275 275 274 274 274 273 273 272 272 272 272 272 272 275 277 278 277 275 274 274 274 274 274 275 276 278 279 279 279 279 280 280 281 281 281 281 280 278 276 273 270 269 270 269 267 268
283 283 283 282 281 280 280 279 278 277 276 275 275 276 275 275 275 274 273 272 272 272 272 271 271 270 270 270 270 269 269 276 281 281 281 281 279 275 275 274 273 273 272 272 272 271 272 274 274 272 273 273 276 277 277 277 274 274 273 273 273 273 273 274 275 275 277 278 278 278 279 278 278 277 277 277 276 275 270 268 270 270 268 268 267
282 282 283 282 281 280 279 279 278 277 276 276 276 276 275 275 274 273 273 273 272 272 271 270 270 270 270 270 272 270 269 275 281 281 281 281 278 275 274 273 272 271 271 270 272 272 272 274 275 275 275 275 277 277 278 277 274 274 274 274 272 272 273 273 272 271 272 273 273 272 271 272 270 269 270 275 275 275 272 270 270 269 268 268 268
282 281 280 279 279 278 278 278 278 277 277 277 276 276 275 274 273 272 272 272 271 271 270 270 269 269 269 269 270 270 269 271 277 280 280 281 280 274 273 272 270 270 270 270 270 271 272 273 275 276 277 277 277 277 277 277 275 275 274 273 272 271 272 271 272 273 273 271 269 269 268 268 269 269 269 270 270 271 272 271 271 270 269 270 271
280 279 279 278 278 278 278 279 278 278 277 276 276 275 274 273 272 271 271 271 270 270 269 269 268 268 268 269 269 268 268 270 275 280 280 280 280 276 273 272 271 270 270 270 271 271 272 273 273 274 275 276 276 276 277 277 278 275 274 273 272 272 275 273 273 273 269 267 266 266 266 266 267 268 268 269 270 270 271 272 272 272 271 269 268
278 278 278 278 277 277 278 278 278 277 276 276 274 274 273 273 272 271 271 270 269 269 269 268 267 267 267 268 268 268 270 272 272 278 279 280 280 278 273 272 272 271 270 270 271 272 272 272 272 273 274 275 275 276 277 277 277 275 273 275 276 276 274 273 269 267 265 264 264 264 264 265 265 266 267 268 269 270 271 271 272 272 272 271 270
277 277 277 277 276 276 276 277 277 276 275 275 274 273 272 271 271 271 270 269 269 268 267 267 266 266 266 266 267 268 269 271 274 275 279 280 280 279 276 275 276 272 271 270 272 272 272 272 271 273 274 274 275 276 276 276 275 273 275 275 275 276 274 267 266 264 263 263 263 263 264 264 265 265 266 267 269 270 270 271 271 271 271 272 272
277 277 276 276 275 275 275 275 275 274 274 274 273 272 271 270 270 270 270 269 268 267 267 267 266 266 265 266 266 267 269 270 273 276 277 280 280 280 278 277 277 273 273 272 273 272 271 270 270 273 274 275 275 275 275 274 273 273 274 274 274 273 267 264 263 262 263 262 262 263 263 265 266 266 267 268 269 269 270 271 271 271 271 271 272
276 275 274 274 275 274 274 274 274 273 273 273 272 271 270 269 269 269 269 269 268 267 267 266 265 266 265 265 266 267 268 269 271 274 277 278 279 279 278 278 277 277 274 273 272 272 272 273 273 274 274 273 273 273 271 270 271 272 273 273 271 264 263 262 262 262 261 262 263 263 264 265 266 267 268 269 269 270 270 270 271 271 271 271 271
275 275 275 274 274 273 273 273 273 272 272 272 272 271 270 269 269 268 268 268 268 267 267 266 266 266 266 266 266 266 267 268 270 272 274 276 277 278 278 278 277 277 274 272 273 273 273 274 274 272 271 270 268 267 265 266 270 271 271 269 264 262 261 261 261 261 262 263 263 263 264 266 267 268 268 269 268 268 268 268 269 268 269 268 267
276 275 274 274 273 273 273 272 272 271 271 271 271 271 269 269 269 268 268 268 267 267 267 266 266 266 266 266 266 267 267 268 269 270 271 272 273 274 275 275 276 275 273 271 271 269 270 270 268 270 269 269 269 268 268 267 264 263 262 262 261 261 261 261 262 263 263 263 263 264 265 266 267 267 266 267 267 268 269 268 268 267 268 267 267
276 275 274 273 272 272 272 270 270 270 270 271 270 270 269 269 269 268 268 268 268 267 266 266 266 266 266 267 266 266 266 267 267 268 269 270 270 271 272 271 271 269 269 269 268 268 266 266 264 261 259 258 258 257 259 259 260 261 260 260 260 262 264 267 267 264 264 264 264 264 264 265 265 265 266 267 267 268 269 268 267 267 267 267 265
275 275 274 272 271 271 271 271 271 271 270 270 270 270 269 269 269 269 270 270 270 269 267 267 267 268 268 268 266 265 266 266 267 271 269 272 270 270 270 269 269 268 270 271 265 262 261 257 256 257 254 257 256 255 256 257 257 258 258 258 259 260 260 260 260 261 262 263 262 263 263 264 264 266 266 267 267 268 269 268 268 267 267 267 265
274 274 273 272 271 270 270 270 270 270 270 269 269 269 270 272 271 269 269 272 274 274 273 269 269 269 269 269 268 267 266 267 272 274 274 274 274 274 273 273 272 270 272 273 266 258 257 254 255 255 254 254 255 255 256 256 256 257 257 261 261 259 260 261 261 262 262 262 263 263 263 264 264 265 266 266 267 268 268 269 267 267 266 265 264
274 274 271 271 271 270 270 270 269 269 269 269 269 268 267 270 273 273 272 272 273 274 275 274 274 273 270 268 270 271 271 273 274 275 275 275 275 275 275 274 274 274 273 267 261 257 256 256 256 255 254 254 254 255 255 255 256 256 257 258 258 259 260 260 261 262 262 262 262 263 264 264 265 266 266 266 266 267 267 267 267 266 265 265 264
275 274 273 271 270 269 269 269 269 268 268 268 268 267 267 266 268 273 274 273 274 275 275 275 275 275 274 271 270 269 273 275 276 276 276 276 276 276 275 275 275 275 272 270 258 257 256 255 255 254 254 253 254 255 255 254 255 256 256 257 258 259 260 260 261 262 261 262 262 263 264 265 265 266 266 267 267 266 266 266 266 265 265 265 265
276 276 274 272 270 269 269 268 268 268 267 267 266 267 266 266 266 267 270 274 275 275 275 275 275 275 275 274 274 273 274 276 277 277 277 277 277 276 276 275 275 274 271 262 258 257 255 255 254 253 252 253 253 253 254 254 255 256 257 257 257 258 259 261 262 261 261 262 263 263 264 265 266 266 267 267 266 265 266 265 265 265 265 264 264
276 277 276 273 270 269 268 268 268 267 267 267 267 267 267 267 267 267 267 268 271 273 276 276 276 276 275 275 275 275 276 277 277 277 277 277 276 276 275 272 274 272 266 257 257 255 255 253 254 253 252 252 252 253 254 254 255 255 256 257 257 258 259 260 260 260 261 262 263 264 265 265 266 266 266 266 266 266 265 265 265 264 264 264 264
277 275 272 272 271 270 269 268 268 267 267 267 266 266 267 268 268 268 267 268 268 269 270 272 275 276 273 274 276 277 277 278 278 277 277 276 276 276 274 268 263 259 257 255 256 254 254 254 253 253 252 252 252 252 253 253 254 254 255 256 257 257 258 259 259 260 261 262 264 264 265 266 266 267 266 266 265 265 265 265 264 264 264 264 264
276 276 275 272 271 270 269 269 268 267 267 267 267 267 267 268 268 268 268 269 269 269 270 271 272 275 276 276 277 277 278 278 277 277 276 276 275 274 264 261 259 257 256 255 254 254 253 253 252 252 251 251 251 251 252 253 254 254 255 256 257 257 257 258 259 260 262 264 264 265 266 266 267 267 267 266 265 265 265 264 264 265 265 264 264
276 275 275 273 271 270 269 268 268 268 269 267 267 267 267 268 268 268 269 269 269 269 269 270 270 271 273 272 275 277 278 277 277 276 275 275 275 267 262 261 259 256 255 254 253 253 252 252 252 251 251 250 250 251 252 252 254 254 257 257 256 256 257 258 261 263 263 262 263 264 265 266 266 267 266 265 265 265 265 265 265 265 265 265 265
276 276 275 274 271 269 268 267 267 268 267 267 267 267 267 267 268 268 268 268 269 268 268 269 270 269 268 269 274 274 274 276 276 274 274 272 263 259 258 258 257 257 255 253 253 252 251 250 249 250 249 249 249 250 251 253 254 254 255 255 256 256 261 261 262 261 262 263 264 265 265 266 267 267 266 265 264 264 264 264 264 264 264 264 264
275 275 275 274 273 269 268 267 266 267 267 266 267 267 267 267 267 268 268 268 268 268 268 268 268 268 268 270 271 272 273 269 266 261 259 257 257 257 256 256 255 254 254 253 252 251 250 250 250 249 249 247 249 250 251 253 253 254 254 255 256 257 258 258 259 260 262 263 264 265 266 266 267 267 266 265 264 264 264 264 264 264 263 263 264
274 274 274 274 272 270 268 267 266 267 266 266 266 267 266 267 267 268 268 267 267 267 268 267 267 267 268 269 269 270 267 264 261 258 255 253 254 254 255 254 254 254 253 252 251 250 250 250 248 247 247 247 248 249 251 252 252 253 254 255 256 257 258 259 259 260 261 263 264 265 266 266 267 267 265 265 264 264 264 264 264 264 264 264 264
272 273 271 273 272 270 268 266 266 266 267 266 267 267 266 267 267 267 267 267 266 266 267 266 266 267 266 267 272 270 265 262 259 257 256 255 254 253 253 254 253 252 252 251 250 249 249 248 246 246 246 247 248 249 250 250 252 253 254 256 257 257 258 259 260 260 262 263 264 265 266 267 267 266 264 264 266 265 264 264 264 264 264 264 264
272 272 272 270 270 269 267 266 266 266 266 266 266 266 266 266 267 267 266 266 265 265 265 265 265 264 266 272 271 269 263 259 258 257 256 255 254 253 253 252 252 252 251 250 249 249 247 247 248 247 247 248 248 249 249 250 251 252 254 255 256 257 258 259 260 261 262 263 264 265 266 267 267 267 266 267 264 264 264 264 264 264 264 264 264
272 272 271 270 269 268 267 266 266 266 266 266 266 265 266 266 266 266 265 264 264 264 263 262 261 262 266 271 269 267 259 258 256 256 255 254 254 253 253 252 251 250 249 248 247 248 248 247 247 247 247 248 248 249 249 250 251 252 254 255 256 257 258 259 260 261 263 264 265 266 266 267 267 265 264 264 264 264 263 264 264 264 264 264 264
272 271 270 269 268 268 267 267 266 266 266 265 265 265 265 265 265 264 264 263 263 263 262 261 261 262 265 268 266 260 257 257 256 255 254 254 253 253 252 251 249 247 246 247 247 246 246 246 247 247 246 247 248 248 249 250 251 252 254 255 256 257 258 259 260 261 263 264 265 265 266 267 267 265 264 264 263 263 263 263 264 264 264 264 264
272 271 269 268 267 267 266 266 266 265 265 264 264 264 264 264 264 263 263 262 262 261 261 260 261 262 264 265 260 258 257 256 255 254 254 254 253 252 251 249 248 248 247 247 246 246 245 246 246 245 247 247 248 249 250 250 251 252 253 254 255 256 258 259 260 262 264 264 265 265 267 267 266 265 264 264 263 263 263 263 263 264 263 263 263
271 269 268 267 266 265 265 265 264 264 264 264 263 263 263 263 263 262 262 261 261 260 259 260 261 262 262 261 258 256 256 255 254 254 254 253 253 251 249 248 247 247 247 246 246 245 246 246 245 245 247 247 248 249 250 250 251 252 253 254 256 257 259 260 262 263 264 265 265 267 268 267 266 265 264 264 263 263 263 263 264 264 263 263 263
269 268 267 266 265 264 264 264 264 263 263 263 263 262 262 262 262 261 260 260 259 259 259 260 260 260 259 258 257 255 255 254 254 253 253 252 251 250 248 247 246 246 246 245 245 245 245 246 246 246 246 247 248 248 249 250 251 252 254 254 255 257 259 261 263 264 264 266 268 269 268 267 265 264 264 264 263 263 263 263 263 263 263 264 263
267 266 266 265 264 264 263 263 262 261 262 262 262 262 261 261 260 260 259 258 258 258 259 259 259 258 257 256 255 254 254 254 253 253 252 251 250 249 247 247 247 246 245 244 244 244 244 244 244 245 246 247 248 249 249 250 251 252 253 254 256 257 260 263 263 264 265 268 270 269 268 266 265 264 264 263 263 263 262 263 263 263 264 263 264
266 265 264 264 263 263 262 262 261 261 261 261 261 261 260 260 259 258 258 258 258 258 259 258 257 256 256 254 254 253 253 253 252 252 251 250 249 247 246 246 247 245 245 245 244 243 244 244 245 245 246 246 247 248 249 250 251 252 253 254 257 259 261 262 263 265 268 270 270 268 267 266 265 264 263 263 263 263 263 263 263 263 263 263 263
264 263 263 262 262 262 262 262 262 261 261 261 260 259 259 258 258 257 257 257 257 257 256 256 255 255 254 253 252 252 252 252 252 251 251 250 248 246 245 245 244 243 243 243 244 244 243 242 243 244 245 246 247 248 249 250 251 252 253 255 258 260 262 264 266 268 269 270 269 268 267 266 265 264 263 263 263 263 262 263 263 263 263 263 263
262 262 262 261 261 261 261 261 261 260 260 260 259 258 258 257 257 257 256 256 255 255 255 255 254 254 253 253 253 253 252 252 252 251 250 250 249 247 247 245 245 244 243 243 243 244 243 242 243 245 245 247 248 249 249 250 251 252 255 258 261 264 266 267 267 269 270 270 269 268 267 265 264 263 263 263 263 262 263 263 263 263 263 263 263
Wind_Speed
15 16 14 16 15 16 16 16 16 14 12 13 13 13 11 12 13 12 10 13 12 13 14 14 14 14 13 12 13 12 11 10 9 9 8 8 8 8 8 8 8 6 6 5 4 5 5 5 5 4 4 4 4 4 4 4 4 5 5 5 4 4 6 7 11 17 19 5 11 7 3 6 11 4 13 12 7 10 11 11 12 12 12 11 12
15 17 16 16 17 17 17 13 13 12 14 13 14 13 13 13 13 11 14 13 12 13 13 12 12 13 13 13 12 11 11 11 10 10 10 10 9 7 8 8 7 6 6 6 5 5 5 5 5 4 5 5 4 5 4 5 5 4 5 5 6 6 6 7 10 12 22 18 9 11 8 4 13 4 8 16 12 8 14 13 9 11 12 11 11
17 15 14 14 16 15 14 12 12 14 15 13 14 14 13 12 11 15 14 13 12 12 13 12 13 13 12 13 12 12 12 12 11 11 10 10 10 8 8 8 8 8 8 7 7 6 6 6 6 5 4 5 6 5 5 5 5 5 6 5 6 6 6 8 9 13 16 20 13 13 11 4 8 13 10 9 13 12 13 14 12 9 9 11 12
14 14 14 15 15 13 13 12 13 14 15 15 16 14 12 11 11 13 13 12 14 12 12 13 12 13 13 13 13 12 12 11 10 10 10 10 10 10 9 9 8 8 8 7 7 7 7 7 6 6 5 5 6 5 5 5 5 5 6 6 6 7 7 7 9 11 14 17 21 12 14 15 10 7 9 12 13 12 12 12 12 12 13 11 13
13 14 14 15 14 14 14 13 14 15 16 14 16 14 13 12 11 13 12 13 13 12 12 11 12 13 13 14 13 12 12 12 12 10 9 9 10 9 9 9 8 8 8 8 7 7 7 7 6 6 6 6 6 6 6 7 6 6 6 6 7 7 7 8 9 11 13 17 20 17 12 14 12 11 9 12 14 11 11 14 13 14 14 15 12
14 14 14 14 14 15 15 14 16 18 18 16 16 15 14 13 13 11 13 14 13 13 15 13 13 14 12 12 12 12 11 11 11 11 10 9 9 8 9 9 9 8 8 7 7 7 7 7 6 6 6 7 7 7 7 8 6 7 7 7 8 8 9 10 10 11 13 15 17 20 18 13 16 16 6 12 16 16 17 16 14 12 12 15 13
13 13 14 14 14 15 15 17 18 18 17 16 13 12 13 13 13 14 12 14 15 14 13 14 12 13 12 11 12 12 11 10 10 10 10 10 10 10 10 9 8 7 7 7 7 7 7 7 7 7 7 8 8 8 7 7 6 7 8 9 9 9 10 10 10 12 13 14 15 14 17 17 14 17 17 11 16 15 13 19 26 14 8 12 17
13 15 14 15 16 17 17 18 17 16 13 12 12 13 12 12 13 12 11 13 14 15 15 15 12 11 11 11 11 10 11 11 10 10 10 11 11 10 10 9 8 7 7 7 7 7 7 7 7 7 8 8 8 7 7 7 6 8 8 9 9 10 10 10 11 12 12 12 14 13 15 19 16 18 15 13 15 15 12 11 18 25 23 16 16
14 14 14 16 17 17 16 13 11 10 11 11 12 13 13 13 12 12 12 12 11 13 13 13 13 12 10 11 11 11 11 12 11 12 12 12 10 10 10 9 9 9 8 8 8 7 7 7 7 8 9 12 15 12 11 10 7 8 9 10 10 10 10 10 9 10 12 12 13 14 14 16 15 17 18 13 17 16 14 16 19 17 18 20 21
14 14 15 17 16 15 13 12 12 12 13 14 14 13 13 13 13 13 13 13 12 11 12 12 13 14 14 12 11 11 11 10 13 20 16 12 12 10 9 10 9 9 8 8 7 8 8 7 7 13 15 15 15 15 15 16 17 12 8 6 7 7 8 9 9 8 9 10 10 12 15 15 16 15 19 19 17 20 22 16 21 22 16 22 22
14 14 17 17 15 13 12 12 12 14 14 13 12 13 14 13 13 13 13 12 13 13 13 14 13 13 14 14 14 12 11 10 22 23 23 22 14 11 10 9 9 9 8 8 8 8 7 8 8 11 12 12 11 16 15 16 16 16 18 18 15 11 8 9 10 9 11 13 14 12 15 15 22 16 22 18 20 17 18 20 18 22 20 19 20
14 16 17 14 12 13 13 13 13 14 13 14 14 14 13 13 13 13 13 13 13 12 14 15 14 13 12 13 14 14 13 16 25 24 23 23 18 11 9 8 8 8 8 8 7 7 7 7 8 6 7 6 4 4 10 14 15 16 17 17 18 20 19 14 12 10 9 10 12 14 13 19 18 19 15 19 17 21 19 20 20 19 21 22 20
15 15 13 12 13 13 12 14 15 14 15 14 13 13 14 14 14 14 16 14 12 14 15 14 14 14 14 15 14 13 11 19 23 24 23 23 22 15 8 8 8 9 9 9 8 7 7 7 7 4 3 10 9 5 4 6 12 17 17 18 19 20 20 23 23 17 13 13 14 16 14 16 20 21 16 19 15 22 19 18 21 17 21 18 25
12 13 11 11 12 12 13 13 14 14 13 12 13 14 15 17 16 14 12 12 14 14 13 15 14 14 14 14 13 12 11 18 23 23 22 23 22 16 8 9 9 8 9 8 8 8 9 7 5 4 4 5 6 6 6 7 8 9 10 10 10 14 19 22 23 25 22 17 17 19 18 16 18 19 19 19 18 16 16 18 21 18 18 21 20
12 12 12 11 10 11 13 13 13 12 13 14 14 15 16 14 14 14 14 16 16 16 16 15 14 13 12 11 11 11 9 19 22 22 21 22 22 16 8 8 7 7 8 8 8 9 9 6 5 5 5 5 6 7 8 9 8 8 8 9 11 11 12 13 15 14 14 14 15 18 19 16 18 17 17 16 20 18 17 20 18 19 19 20 19
12 10 11 12 13 14 14 14 14 13 14 14 15 15 15 16 17 14 13 11 10 10 10 11 13 12 10 10 9 9 8 20 21 21 22 21 22 10 9 8 7 7 8 9 9 8 7 5 5 6 6 6 9 14 12 8 7 8 10 10 10 13 14 15 20 19 17 15 15 16 16 19 24 23 22 20 17 15 15 15 16 18 16 18 20
12 12 13 14 14 14 15 15 15 15 15 15 16 16 16 15 13 11 13 13 13 13 13 11 10 11 11 10 10 9 8 17 22 22 22 23 16 8 9 7 7 9 8 8 6 5 5 5 6 6 6 6 10 13 13 13 8 9 9 10 12 12 11 11 17 23 23 25 28 31 32 32 30 30 31 34 27 22 15 16 18 13 15 19 19
12 12 14 14 15 14 14 15 16 15 15 18 18 16 14 11 12 12 15 14 14 13 11 10 9 10 12 12 12 11 10 16 23 22 22 23 15 9 8 8 7 6 4 4 3 4 5 13 11 8 8 8 11 13 13 11 8 8 10 12 11 9 12 13 11 12 21 27 31 29 27 26 31 34 33 31 31 24 15 16 16 15 18 17 19
6 10 11 9 9 10 11 13 14 16 17 17 15 15 15 14 11 10 10 10 10 9 10 10 10 10 10 11 14 13 10 14 22 21 23 22 16 8 8 8 7 6 5 4 5 5 6 9 13 11 9 9 14 13 14 11 8 9 10 9 12 13 13 13 14 14 11 11 11 10 12 19 17 15 18 30 30 26 18 17 14 14 17 18 18
5 6 4 1 4 7 9 11 12 14 15 12 11 12 10 10 12 12 10 9 9 9 9 10 12 10 10 10 11 10 10 9 14 23 22 22 20 10 8 9 9 9 7 6 4 5 7 7 8 11 12 13 13 13 13 14 10 8 7 8 10 10 9 11 13 12 12 10 11 11 14 14 13 13 13 14 15 16 17 17 16 15 15 17 16
4 2 0 1 2 4 5 9 12 10 9 11 10 10 10 12 11 12 12 9 9 9 10 9 9 9 9 9 9 9 9 10 13 22 21 23 23 17 9 9 8 8 8 7 7 7 6 6 6 9 11 11 12 13 14 15 15 10 7 7 8 13 16 11 11 14 10 12 13 13 12 12 12 11 12 12 12 13 14 16 15 15 15 15 17
0 0 1 2 3 4 4 3 3 5 6 9 10 10 8 8 10 11 9 10 12 11 10 9 9 9 7 8 8 9 10 15 10 20 22 24 23 21 11 10 10 9 8 7 8 7 7 6 5 7 10 11 12 14 15 15 17 9 9 16 21 21 15 10 8 8 10 10 11 11 11 11 11 11 11 11 11 12 14 14 14 14 16 18 18
0 1 1 2 2 2 2 3 4 3 5 6 9 10 8 10 10 10 11 11 12 12 11 10 10 10 8 8 7 7 8 11 15 12 22 23 24 21 19 14 19 10 8 8 9 7 6 6 5 9 10 11 12 14 15 16 13 10 16 18 19 21 17 7 8 9 9 10 10 11 11 10 10 11 11 11 12 12 13 13 15 18 17 14 17
0 0 1 1 2 2 2 2 2 2 5 6 7 9 9 9 9 10 11 11 11 12 10 10 11 11 10 8 6 5 5 6 14 17 16 23 21 22 21 20 20 11 9 7 6 5 4 4 4 10 10 11 13 13 14 14 10 15 16 17 18 16 8 9 8 9 10 10 10 11 11 10 10 11 10 11 13 15 16 18 17 15 18 18 17
0 2 2 3 3 3 4 5 6 6 6 8 9 9 9 10 10 9 10 10 11 12 11 11 9 7 6 8 8 8 6 6 6 14 19 19 21 20 20 20 18 18 9 6 6 6 6 10 11 9 8 9 11 12 10 11 15 15 16 17 15 6 7 7 9 9 10 11 11 11 12 12 12 14 15 16 17 16 15 13 13 13 14 16 19
4 5 4 5 6 6 7 5 6 6 8 8 9 9 11 11 11 10 10 10 10 11 12 8 7 7 8 8 9 9 10 7 8 10 12 16 16 20 20 19 17 16 11 7 9 10 11 9 5 3 5 6 5 4 5 7 13 15 16 14 6 6 6 7 8 9 10 11 11 12 13 13 13 14 16 16 14 14 13 14 14 11 11 12 15
7 6 7 6 6 7 9 8 8 8 9 8 8 8 9 9 10 11 11 12 12 11 11 10 9 8 9 9 7 8 8 10 9 9 8 8 8 10 12 11 15 13 7 6 7 3 4 3 1 3 2 5 7 8 9 10 8 8 6 5 5 6 6 6 8 10 11 11 12 12 13 13 14 14 14 14 14 13 11 14 13 14 11 11 14
9 9 9 8 8 9 9 10 11 9 10 11 11 10 10 11 13 14 16 16 15 14 13 14 14 14 13 12 12 11 12 11 11 11 10 9 8 7 6 7 6 5 6 5 4 5 4 3 4 4 2 2 2 2 4 4 6 6 6 5 6 7 9 14 15 10 10 10 11 13 13 13 13 14 14 14 13 13 12 13 14 16 14 13 14
10 9 8 7 9 9 9 10 11 11 11 11 11 12 14 15 15 13 11 10 13 16 16 15 14 14 14 14 13 9 7 12 13 13 13 15 13 10 8 8 7 6 8 10 7 5 5 3 2 2 1 1 3 4 4 5 5 6 6 6 5 5 6 6 8 9 9 10 11 12 14 14 14 13 14 14 14 14 13 14 14 14 16 13 16
9 10 8 9 8 8 8 9 10 10 10 11 11 9 7 12 9 9 9 12 15 13 12 12 13 13 14 12 15 19 19 16 20 25 22 22 21 19 16 16 14 11 13 16 10 5 4 4 1 0 1 1 3 4 5 4 5 6 5 7 7 6 7 7 8 9 9 10 11 12 13 14 15 14 14 15 15 14 14 16 16 14 14 15 16
9 9 8 9 11 11 10 9 9 8 8 7 7 8 6 7 14 13 8 11 14 15 16 15 16 17 12 12 10 8 10 19 26 25 25 24 23 21 20 19 18 18 16 12 5 6 5 3 2 2 2 3 4 5 5 4 5 5 6 5 6 7 8 7 8 8 10 10 11 11 12 13 14 14 15 15 16 16 15 13 13 14 14 15 16
11 11 11 11 11 10 9 9 9 9 8 8 8 8 8 8 7 15 16 14 17 17 17 17 19 20 17 14 12 9 18 25 27 26 25 25 23 22 21 20 20 19 18 13 7 5 6 5 4 4 3 3 5 5 4 4 5 5 5 6 7 6 7 8 8 8 10 11 12 12 12 13 14 15 15 15 16 16 15 16 14 14 15 14 15
14 13 11 11 10 11 9 9 10 11 11 11 11 10 11 11 11 9 11 17 19 17 18 18 21 20 20 20 19 18 22 24 27 26 25 25 24 22 22 21 20 19 16 7 6 6 5 5 4 3 3 4 4 4 5 4 5 5 5 6 7 7 7 9 12 10 10 11 12 12 13 13 14 15 15 14 15 16 17 16 15 14 14 15 16
16 14 12 12 11 10 11 11 12 12 12 11 11 12 12 11 11 11 10 10 12 14 16 19 21 22 22 22 22 22 25 27 27 25 25 24 23 22 20 15 19 17 11 7 7 6 6 5 4 4 4 4 4 4 5 5 5 5 6 6 7 8 9 9 9 10 10 12 11 11 13 13 14 14 15 15 14 15 16 16 15 15 15 15 16
14 16 19 13 10 11 11 11 12 11 11 12 12 12 12 11 11 12 13 14 14 13 12 13 19 23 19 18 21 26 26 26 25 25 25 24 24 24 21 12 10 6 5 4 6 6 7 6 5 4 4 4 5 4 5 5 5 5 6 7 7 7 8 8 9 10 11 11 12 12 13 14 15 14 14 15 17 17 16 16 15 15 16 17 16
14 13 11 13 12 10 10 10 11 11 12 12 11 10 10 10 11 11 11 11 11 11 10 10 11 18 26 23 26 26 26 25 24 24 23 23 24 23 11 9 8 7 6 5 5 5 4 5 4 4 4 4 4 5 5 5 5 6 6 7 8 8 8 9 10 10 11 11 12 14 15 14 14 14 14 15 16 17 17 17 17 16 16 16 16
12 12 11 10 10 10 9 9 10 11 10 9 10 10 10 10 10 10 11 12 12 11 12 12 13 14 16 12 20 23 26 24 23 22 21 21 22 11 7 8 8 7 7 6 5 4 5 4 4 3 4 4 5 5 5 4 5 6 7 7 7 8 8 8 10 11 12 13 13 13 14 14 14 14 14 16 17 16 16 17 17 18 17 19 20
14 12 12 11 10 10 10 10 10 10 10 10 10 11 11 12 12 13 13 13 13 13 14 13 14 15 16 13 18 13 17 22 24 18 16 14 8 6 6 6 7 8 7 6 6 5 4 4 3 4 4 5 5 5 4 5 6 7 7 6 7 7 14 13 14 13 12 12 12 13 13 13 13 13 14 15 16 17 17 17 17 18 18 17 15
13 18 20 16 12 11 10 9 9 11 11 11 11 12 13 13 13 13 13 12 13 13 13 14 14 14 14 13 13 14 18 13 11 9 8 6 5 5 6 6 6 6 6 6 5 5 5 4 4 4 5 6 5 3 3 6 6 7 6 6 7 7 9 8 10 11 11 11 12 12 13 13 12 12 13 14 16 15 16 17 17 16 18 17 16
14 12 13 18 10 11 10 10 11 11 12 12 12 12 12 13 14 15 14 14 15 14 14 15 14 13 14 14 14 14 13 12 11 9 9 10 8 7 6 7 7 7 7 6 6 5 5 4 4 5 5 3 3 4 5 7 7 6 6 6 6 7 8 9 10 11 12 12 12 13 13 14 13 13 13 14 14 16 17 17 16 16 17 17 18
13 13 11 12 13 10 10 11 12 13 12 12 12 13 14 14 14 13 13 14 14 14 14 13 12 12 11 15 24 20 14 13 11 10 9 9 8 8 6 6 7 6 6 6 6 5 4 4 5 5 3 3 4 5 6 6 6 5 5 6 6 7 8 9 10 11 13 13 13 13 13 13 13 13 14 15 18 18 16 16 16 15 16 16 17
13 12 11 10 12 11 10 12 11 12 12 11 12 13 12 12 13 13 13 14 13 13 13 11 11 10 14 27 25 24 13 9 10 9 8 7 7 7 6 6 5 6 6 6 5 5 4 4 5 3 3 4 5 6 6 6 5 5 5 5 6 8 9 10 11 12 13 13 13 13 14 14 13 15 17 17 16 15 16 15 15 16 16 17 16
13 12 11 9 10 12 12 12 11 11 12 12 12 11 12 13 12 12 12 12 13 13 12 12 10 10 13 21 22 21 10 9 8 9 8 7 7 7 7 7 7 5 5 5 4 5 4 4 3 4 5 6 7 7 6 6 5 5 5 6 7 8 9 10 11 12 12 13 14 15 16 13 13 12 13 14 15 15 16 16 17 17 17 17 16
12 11 10 10 10 10 10 10 11 12 12 13 13 11 12 12 11 11 12 12 12 11 12 12 12 12 11 15 15 11 9 9 9 8 9 8 7 7 6 5 5 5 4 3 3 3 4 4 4 5 5 6 7 6 6 6 5 5 6 6 6 8 9 10 11 12 13 13 14 14 14 12 14 14 14 15 16 16 17 18 18 18 18 17 17
11 10 10 9 9 10 10 10 10 10 10 10 10 10 10 11 11 11 12 13 12 11 11 11 12 12 12 12 11 11 10 9 9 8 8 8 8 7 6 6 5 5 4 3 2 3 3 5 5 4 6 6 6 6 6 6 5 6 5 6 6 7 8 10 11 12 14 15 13 13 12 13 15 15 15 16 17 17 17 18 18 19 19 18 17
10 9 9 9 9 9 9 9 9 10 11 12 12 12 11 11 11 13 12 12 12 12 11 11 11 12 10 10 10 9 9 9 8 8 7 7 7 6 6 5 4 4 3 3 3 3 4 5 5 5 6 6 6 5 6 6 6 6 6 6 7 8 9 10 11 12 14 14 13 11 13 14 15 14 18 17 16 16 17 18 18 17 17 19 19
9 8 9 9 10 10 10 10 11 11 11 11 11 12 12 12 12 12 10 12 12 10 11 11 11 10 8 9 10 9 8 9 8 8 8 7 7 6 7 5 4 3 2 3 3 4 5 5 5 6 6 6 6 7 7 6 6 6 5 6 6 8 9 9 12 13 13 14 12 11 13 13 14 14 17 17 16 17 18 17 18 20 19 18 18
8 8 8 9 9 10 10 10 11 11 10 10 11 11 10 10 11 11 10 11 12 11 11 10 9 9 8 8 8 8 8 8 7 7 7 7 6 6 6 5 4 4 3 3 3 4 4 4 5 5 6 6 6 6 7 7 7 7 7 6 7 8 12 17 13 15 13 13 12 11 13 13 13 14 15 17 17 17 17 18 18 17 18 18 17
8 9 9 9 10 10 11 11 11 11 11 11 11 11 10 11 10 10 10 11 11 11 11 11 9 9 8 8 8 8 7 7 7 7 6 6 6 5 5 5 4 3 3 3 4 3 4 4 4 5 6 5 6 6 7 7 8 8 8 7 10 16 19 22 16 13 20 15 10 11 12 12 13 14 15 16 17 16 16 17 17 18 18 17 17
8 8 9 9 9 9 8 9 10 10 9 10 11 11 10 10 10 10 11 11 10 11 10 10 9 8 8 10 9 9 8 8 7 7 6 5 5 6 5 4 4 3 3 3 3 3 3 3 4 5 5 5 5 6 6 7 8 9 8 9 14 19 20 22 23 24 18 10 12 11 12 12 12 13 14 15 16 17 17 17 18 18 17 18 18
8 8 8 9 9 9 9 10 9 9 9 10 10 11 11 11 11 11 12 15 15 14 12 11 11 9 10 10 8 8 8 7 6 6 6 6 5 5 5 5 4 2 2 3 3 4 3 3 4 5 4 4 5 6 6 8 8 9 11 16 18 20 22 23 17 19 22 16 11 12 11 11 12 14 14 15 15 16 18 18 18 18 17 17 17
Wind_Direction
200 210 204 210 206 204 204 202 200 196 192 194 198 200 197 191 188 183 158 185 179 180 183 182 179 177 173 174 175 175 171 168 166 161 163 165 169 170 171 174 172 171 158 163 162 168 181 194 202 192 173 195 208 208 216 218 222 229 230 236 245 239 248 256 271 280 288 220 272 275 204 280 283 239 284 290 281 284 273 274 279 281 279 275 275
206 209 204 208 205 207 205 201 197 190 192 193 198 197 195 193 186 167 181 180 176 183 183 179 177 173 173 174 175 174 173 168 167 165 168 170 174 168 171 170 169 164 162 172 171 176 181 195 206 174 185 196 206 207 210 211 219 225 230 231 244 250 237 263 265 276 286 294 268 284 274 234 281 253 267 297 295 278 287 285 270 271 278 279 273
207 207 206 206 208 207 203 196 191 192 191 193 199 197 196 191 183 183 179 176 177 180 179 176 175 173 173 174 173 175 174 171 172 171 173 172 170 171 171 171 171 171 175 180 177 176 182 195 200 183 186 202 217 220 213 218 212 222 236 229 242 243 245 244 264 275 281 286 293 295 289 242 267 299 295 277 286 289 287 290 286 270 261 264 271
207 205 206 209 207 200 199 193 190 192 194 197 199 196 190 188 187 189 180 170 174 177 172 174 172 175 175 175 177 174 172 172 171 174 172 171 170 171 171 173 175 178 178 177 178 181 190 197 199 188 187 203 223 223 221 218 214 217 233 237 238 246 246 243 247 264 280 287 292 290 296 302 292 278 282 286 287 291 286 281 279 280 277 265 258
204 206 205 207 201 199 197 190 193 195 200 198 197 190 187 184 183 187 179 175 174 166 170 170 174 175 179 178 176 175 175 170 170 171 171 171 171 169 172 173 178 178 179 181 183 184 191 196 191 180 181 205 221 221 219 217 214 219 230 235 237 244 243 243 250 251 266 275 285 289 292 293 293 290 295 300 299 287 279 277 276 276 278 270 262
205 204 204 203 201 198 196 192 197 199 201 198 194 188 183 181 182 184 183 177 170 172 169 170 176 181 178 177 176 174 172 171 171 170 169 167 167 171 171 175 178 177 180 181 184 191 191 196 191 186 190 205 220 219 218 224 213 220 227 232 235 237 238 239 241 246 251 262 275 291 294 290 303 296 304 303 299 301 300 288 272 264 274 281 269
205 204 204 203 201 201 196 199 200 200 198 197 189 181 182 182 179 183 182 178 172 171 174 171 174 176 176 171 175 172 168 167 167 168 169 170 171 172 175 176 176 173 182 181 185 188 194 196 196 197 200 211 217 223 223 223 221 226 225 231 236 234 239 244 243 251 258 267 274 273 285 290 289 296 303 292 286 286 294 305 300 286 246 259 282
204 204 202 202 204 202 202 203 202 200 195 186 180 182 177 176 182 179 173 178 179 175 173 174 170 169 172 172 170 165 166 168 169 171 173 174 174 177 175 173 172 176 176 185 186 193 195 197 195 203 212 216 215 219 219 222 221 230 230 232 235 239 242 248 254 258 258 260 265 278 282 286 295 284 284 291 289 289 280 283 289 301 305 293 284
204 204 203 206 207 204 203 201 194 186 182 181 178 178 179 177 176 174 177 179 180 176 171 167 163 166 168 170 168 169 172 176 176 175 174 176 176 174 174 172 173 174 178 185 192 194 200 202 208 211 217 226 228 227 223 221 218 227 232 227 233 240 246 249 248 254 260 261 267 273 274 278 279 285 292 293 292 293 297 297 289 286 293 293 296
203 203 205 209 207 202 197 188 185 181 179 180 182 177 174 173 173 174 179 178 175 170 167 169 170 171 169 172 173 175 181 182 182 180 177 173 173 172 171 174 172 173 173 180 190 198 205 207 216 225 229 229 232 236 240 244 247 249 246 243 252 257 259 260 257 254 258 265 269 281 282 281 284 286 290 294 296 296 295 293 292 293 296 290 289
203 203 209 210 204 193 186 188 179 182 183 178 174 172 174 171 173 174 174 173 173 172 169 170 177 176 175 174 178 183 184 183 183 184 182 179 171 171 169 165 170 172 175 181 191 200 205 209 213 223 228 234 238 242 248 250 256 260 263 264 263 258 260 265 262 261 268 269 273 269 272 278 284 287 289 291 295 294 292 289 291 291 291 293 292
202 207 210 203 194 188 188 182 179 181 174 178 176 176 168 169 173 175 173 174 176 171 175 179 176 177 178 181 184 185 185 183 184 185 183 180 175 170 166 166 165 172 178 185 190 194 200 207 217 209 217 212 204 231 251 256 259 260 262 266 267 267 266 267 271 269 261 268 275 274 276 278 281 286 288 290 291 289 285 286 282 286 283 287 281
206 209 206 194 193 188 182 180 182 178 181 176 171 166 170 172 174 174 181 179 168 176 181 175 182 181 182 184 188 187 183 183 185 185 184 181 175 168 165 165 168 172 179 184 190 194 198 211 214 193 175 234 246 238 221 242 257 263 267 270 272 272 273 271 271 271 275 272 274 277 274 283 284 283 281 284 283 285 284 284 280 281 280 276 279
206 209 199 196 190 186 181 180 183 182 173 167 166 171 173 181 181 179 170 168 178 181 179 182 181 185 187 187 184 182 180 187 187 186 184 181 176 168 167 167 169 173 176 187 191 196 206 208 190 205 209 215 222 225 230 237 242 248 252 250 255 266 270 270 273 276 277 278 276 274 275 273 272 281 281 285 283 283 284 285 285 280 277 273 276
203 201 194 194 183 182 181 182 181 173 171 170 171 177 180 178 175 177 176 180 180 182 182 183 186 184 183 181 180 182 183 187 187 185 183 181 179 165 162 165 166 174 183 191 198 197 206 201 203 210 215 224 218 231 234 237 239 243 249 255 257 262 271 272 269 263 262 265 268 274 279 281 280 284 285 285 281 279 276 278 282 287 291 291 286
204 194 192 188 187 185 181 181 178 173 171 173 176 180 181 181 181 178 176 180 184 178 184 182 180 179 175 173 174 178 179 191 186 183 181 179 180 163 160 165 167 180 186 187 191 208 210 199 203 218 223 228 238 248 253 255 257 261 262 261 267 271 266 263 270 275 277 278 278 280 282 284 284 285 285 286 288 294 298 297 295 291 290 286 280
202 195 198 193 190 185 182 178 177 174 174 175 182 183 182 184 181 173 175 180 179 184 182 178 172 169 170 172 173 175 178 191 185 182 180 178 174 153 164 160 169 170 183 187 194 203 200 207 213 217 229 229 244 252 258 267 266 262 267 271 267 263 265 279 284 282 281 283 284 284 284 284 288 295 297 296 296 299 302 295 286 291 286 284 281
209 200 203 196 189 185 182 178 176 175 175 183 185 187 183 178 179 175 179 177 182 182 170 167 169 171 172 176 177 172 181 191 185 183 180 179 168 158 157 155 158 162 158 167 175 203 221 226 225 224 231 241 250 260 264 268 267 271 269 268 270 275 284 286 288 282 280 282 281 281 282 289 294 295 295 293 291 290 282 277 284 290 283 280 280
249 227 216 195 188 182 179 179 178 178 183 188 182 178 179 180 172 168 178 176 177 166 169 169 167 171 177 176 178 176 177 189 186 182 179 179 170 152 157 151 155 166 162 173 193 213 228 235 237 235 238 247 254 261 268 271 271 264 271 284 287 284 285 294 292 285 269 266 277 294 290 290 290 286 284 288 289 289 282 277 278 272 275 278 277
303 316 332 253 190 182 185 184 184 183 186 178 178 177 164 159 168 172 172 169 167 168 169 171 170 173 170 172 181 172 174 186 185 183 180 180 170 156 152 158 169 168 168 173 192 215 222 233 235 240 249 256 261 266 272 275 275 281 286 283 284 283 294 284 269 270 290 305 297 293 290 288 282 279 275 276 279 276 279 276 272 271 271 276 283
349 356 16 170 202 203 200 195 188 187 179 174 167 163 169 170 164 168 167 163 160 165 169 168 166 167 170 172 172 169 177 177 188 184 183 182 175 164 162 166 165 165 167 171 193 208 216 218 222 241 248 255 263 269 273 277 284 291 288 280 284 286 292 287 296 312 308 302 297 292 286 285 281 275 274 276 278 279 278 277 273 273 277 283 285
89 86 136 182 190 193 203 210 195 175 163 158 165 169 165 159 164 163 162 162 164 167 167 166 166 164 166 170 171 169 181 186 180 187 184 183 180 169 162 170 168 160 167 180 201 205 208 210 215 237 249 260 267 272 280 289 293 294 290 289 291 297 301 305 317 313 301 293 288 284 285 284 286 285 279 280 280 278 283 285 282 279 278 278 280
13 139 134 144 167 186 184 182 165 147 163 165 163 164 158 159 160 163 162 160 164 167 170 170 166 169 166 172 173 170 179 184 187 187 186 186 184 176 171 172 177 169 174 187 195 191 191 209 217 241 257 265 272 284 293 294 299 293 291 295 300 304 311 326 314 301 287 284 284 283 282 280 281 284 286 288 289 288 287 282 285 285 278 273 273
70 127 133 113 120 127 126 128 119 128 157 161 167 162 165 165 163 171 168 165 168 171 177 178 175 169 164 164 163 158 172 166 189 189 190 187 186 182 176 176 180 176 177 180 170 180 176 162 210 242 256 274 291 297 295 296 295 296 298 302 308 315 326 312 297 288 287 287 286 285 286 285 286 286 286 291 294 294 292 291 286 280 282 280 274
143 189 171 144 136 141 139 156 156 155 164 169 173 173 168 168 170 176 171 176 177 179 180 181 168 154 142 156 157 163 164 166 178 190 191 189 187 186 182 180 182 181 170 155 151 164 180 210 227 243 271 299 300 301 304 300 297 297 302 309 316 330 312 296 294 295 293 290 288 288 289 291 290 292 294 297 296 292 288 279 272 265 266 266 271
233 227 202 180 173 158 163 164 164 166 172 182 186 180 176 178 178 175 180 185 183 183 182 176 165 164 166 152 155 157 164 162 177 181 190 186 184 185 186 187 185 181 153 157 166 186 205 214 221 286 308 305 304 287 275 281 295 304 308 312 313 298 286 290 291 291 286 291 292 294 294 295 296 296 296 294 292 290 292 289 293 282 280 282 284
224 221 210 198 181 174 178 179 175 175 178 182 187 182 180 184 182 182 185 184 187 190 187 159 169 173 172 168 137 146 147 167 173 177 174 180 176 182 183 184 177 180 169 152 176 172 162 133 112 249 295 290 297 295 298 301 304 300 288 283 277 277 280 268 273 282 288 291 292 291 293 294 295 297 297 297 292 289 286 289 290 290 292 285 284
220 217 207 196 190 188 192 182 179 183 188 185 185 186 190 190 190 191 188 189 184 190 186 187 186 181 175 173 168 165 172 175 178 172 172 171 174 174 164 147 147 130 140 156 141 139 121 90 72 67 49 2 307 290 272 263 269 274 278 276 276 276 280 289 292 285 280 283 287 291 291 295 296 296 295 293 291 289 292 291 294 294 295 296 292
230 225 211 199 202 195 192 189 193 191 191 195 201 196 189 191 200 206 207 195 194 188 186 193 192 187 178 174 167 150 142 178 186 179 173 173 169 167 158 155 144 150 172 165 119 101 97 84 73 58 58 320 306 292 277 273 269 265 273 276 272 280 289 289 283 284 288 293 293 295 296 297 295 295 293 293 293 295 296 294 291 292 296 291 287
233 233 217 209 208 194 203 201 200 198 196 198 198 205 213 213 213 208 204 203 211 215 204 199 189 175 180 186 177 174 181 183 175 173 170 171 175 172 167 163 168 167 193 171 143 123 128 117 112 165 252 242 269 276 278 282 289 295 285 297 298 292 282 278 280 286 291 290 290 293 294 295 294 296 296 295 296 296 297 299 297 296 294 295 293
234 234 218 219 210 201 200 201 200 202 201 199 198 197 195 210 216 216 211 205 207 213 206 201 188 186 182 167 174 186 167 163 165 164 168 171 172 172 170 172 171 179 161 125 109 132 146 136 180 185 228 235 253 257 268 276 282 283 287 288 282 282 283 280 282 288 291 293 291 287 287 290 292 296 299 298 299 301 302 295 291 294 292 293 293
236 230 220 221 211 203 200 195 190 192 197 193 193 189 190 192 207 215 212 203 202 203 200 187 183 180 179 168 156 150 161 164 164 165 168 171 173 171 170 173 173 166 158 147 121 147 146 166 179 201 204 224 244 253 260 265 270 276 283 291 288 281 290 289 293 294 292 291 291 290 290 291 294 296 297 299 301 303 303 303 301 297 295 290 287
237 238 227 217 211 200 195 192 192 192 193 190 192 188 189 188 188 185 203 203 199 198 193 183 178 175 170 167 167 163 162 165 166 168 172 173 169 167 167 167 168 160 142 122 144 152 168 172 192 200 207 232 250 260 263 265 271 277 280 280 287 290 288 289 297 292 287 287 289 291 294 295 298 297 296 300 305 306 306 303 302 297 296 295 292
238 241 232 217 206 202 201 196 192 196 196 194 192 189 192 189 185 178 171 174 191 199 196 186 179 172 170 167 166 167 166 164 165 168 170 167 164 162 160 161 156 150 143 149 146 160 160 177 196 204 209 232 245 258 269 269 272 273 279 277 279 286 289 292 293 292 292 291 289 287 295 296 297 300 302 305 304 304 303 303 303 302 301 297 296
247 244 241 226 206 209 204 200 199 194 189 191 191 190 190 186 179 179 178 180 179 177 171 173 172 167 167 168 168 166 164 166 167 168 166 167 163 161 152 140 128 97 85 103 143 147 163 179 190 205 205 225 236 239 257 269 271 277 278 284 286 286 292 297 292 293 291 292 293 296 296 297 299 299 302 307 311 310 306 303 302 300 300 300 299
249 245 240 225 218 215 205 203 197 194 192 194 189 187 182 179 181 181 181 179 175 166 162 160 158 166 163 162 163 164 166 166 165 164 166 165 165 154 143 158 143 150 140 148 151 166 163 177 181 211 205 227 238 245 246 259 270 274 277 274 286 293 297 296 295 293 291 296 298 297 298 298 300 301 303 304 305 306 306 304 302 301 299 297 296
251 245 239 224 215 210 207 202 199 194 188 179 177 179 181 184 178 176 177 178 171 168 158 152 147 156 157 161 164 164 164 162 162 163 164 166 162 146 152 159 161 148 152 157 158 160 176 209 196 205 220 226 238 243 253 266 271 274 275 280 281 291 289 285 292 297 304 301 297 295 295 298 301 304 308 310 310 307 304 303 302 300 300 298 298
261 249 242 227 210 205 200 199 195 176 178 178 181 179 180 180 180 178 177 174 170 164 162 163 163 159 157 163 163 159 161 160 159 159 159 150 128 122 153 157 151 156 159 155 160 158 180 202 202 206 229 225 240 251 262 275 270 268 271 279 288 279 296 301 302 297 290 291 292 296 298 298 300 302 308 309 309 309 306 306 304 304 303 300 298
251 248 244 233 209 201 196 185 179 180 184 180 182 181 180 179 177 177 175 172 168 167 166 165 166 162 159 158 153 155 152 154 150 145 133 117 125 141 152 150 141 137 143 151 157 162 181 198 215 215 225 225 238 255 266 270 267 268 277 284 288 292 299 299 297 298 296 291 294 294 296 296 295 302 306 308 307 305 303 305 305 304 303 304 302
258 252 240 227 209 199 185 186 181 183 184 181 184 182 180 179 181 178 173 170 171 169 169 168 168 164 161 156 155 156 153 153 148 144 135 133 151 167 155 153 153 155 158 167 167 179 184 205 201 218 229 236 243 259 254 256 261 269 278 279 287 295 298 297 297 297 296 295 294 296 297 299 300 301 305 308 306 307 306 305 304 304 303 300 301
249 246 238 222 207 194 186 183 188 187 186 184 184 181 184 182 178 174 171 170 168 168 168 167 161 159 157 161 161 156 151 150 148 147 153 153 162 165 165 154 152 152 154 161 174 174 182 199 220 223 240 244 248 249 252 253 262 271 276 285 291 294 297 295 292 292 293 295 294 296 298 300 303 309 312 312 311 309 304 304 301 303 304 301 301
241 238 229 221 207 193 187 191 192 186 181 180 182 183 180 177 175 174 171 169 167 165 158 155 154 150 161 159 154 146 136 137 137 144 145 156 165 169 163 150 149 156 159 168 168 170 187 207 226 223 240 253 246 248 250 257 261 272 280 287 292 299 298 297 296 294 295 296 298 298 302 302 303 313 311 310 309 306 305 305 305 304 305 306 305
240 232 227 206 199 193 192 190 180 179 181 181 183 179 172 171 171 168 164 163 162 159 154 147 145 152 161 159 147 139 124 139 141 146 150 159 164 158 158 161 162 170 165 156 150 162 182 204 229 233 234 241 240 244 248 258 262 275 279 284 294 296 297 295 297 296 296 299 299 300 302 300 309 312 312 310 308 307 307 308 309 309 308 307 309
234 229 216 204 198 192 189 179 182 184 183 177 170 167 166 165 160 157 158 157 158 156 153 152 153 159 159 154 142 128 141 143 150 150 155 157 161 157 156 155 160 154 137 141 162 172 180 208 231 249 245 251 248 248 248 250 251 252 272 280 287 287 290 291 292 297 300 300 299 299 301 307 315 315 313 312 312 311 312 313 313 312 312 311 311
240 222 204 194 189 182 181 176 174 169 159 156 156 156 158 156 158 157 157 157 156 153 154 155 159 161 160 153 143 150 149 150 148 149 158 159 158 153 151 155 155 148 138 169 181 177 192 216 229 246 259 254 252 254 258 254 244 245 246 264 267 274 275 281 288 292 294 297 296 296 305 319 320 318 316 314 314 314 313 315 315 313 314 315 315
230 210 192 182 176 170 168 165 161 157 158 160 157 158 159 158 157 157 158 157 155 153 152 156 162 164 158 142 142 142 147 145 149 150 149 146 146 148 149 146 133 134 150 184 187 201 215 219 227 238 252 265 273 271 269 265 262 253 252 242 260 266 275 283 285 290 295 297 290 296 316 318 318 315 314 313 313 313 312 313 313 314 313 314 314
211 183 180 168 171 162 163 157 157 159 157 158 157 158 158 159 155 152 153 150 149 148 151 156 158 154 142 141 143 144 143 143 146 149 152 149 144 145 136 129 128 133 176 201 210 217 228 236 238 242 255 266 276 280 283 279 277 273 268 267 261 277 279 280 290 295 292 285 291 313 318 319 316 317 315 315 315 314 317 316 318 317 317 317 317
175 159 159 153 150 148 148 148 147 148 148 152 152 153 149 145 146 146 145 145 145 148 149 149 146 137 132 130 129 134 136 137 136 140 137 143 146 141 131 135 141 163 175 209 228 226 231 234 242 247 260 268 275 280 283 286 284 280 279 277 277 272 287 296 295 290 285 295 308 316 318 317 315 315 315 315 315 317 319 320 319 318 320 320 320
142 141 139 144 142 147 146 150 150 153 150 147 144 144 143 143 142 139 140 140 144 147 148 143 134 134 129 129 128 124 124 129 136 139 140 139 139 136 135 138 145 157 171 216 232 236 239 246 247 253 252 263 263 273 279 282 282 280 280 280 283 285 288 292 289 287 297 303 316 321 316 314 313 315 314 316 316 318 318 318 320 320 321 321 322
113 121 124 128 128 130 130 132 137 138 140 143 144 140 140 137 139 141 142 141 140 131 120 131 133 134 134 137 135 137 138 142 144 144 141 138 127 104 122 137 150 174 184 213 242 245 248 249 252 254 256 257 264 268 272 275 275 277 277 279 287 290 290 294 303 304 307 326 325 324 316 312 313 315 316 317 318 320 322 322 322 322 322 324 325
96 102 107 112 117 121 127 131 133 133 138 138 138 138 138 139 141 140 138 129 126 133 133 112 112 129 124 127 134 136 139 135 135 134 140 143 147 144 148 149 161 169 199 221 249 256 259 260 263 260 264 270 275 276 275 273 272 271 277 283 289 298 309 315 311 313 323 334 333 322 315 316 317 319 321 323 323 324 322 322 324 325 327 326 326